Regional Weather Roundup
Issued by NWS Little Rock, AR

Home | Current Version | Previous Version | Text Only | Print | Product List | Glossary On
Versions: 1 2 3 4 5 6 7 8 9 10 11 12 13 14 15 16 17 18 19 20 21 22 23 24 25 26 27 28 29 30 31 32
000
ASUS44 KLZK 240905
RWRLZK

WEATHER ROUNDUP FOR ARKANSAS
NATIONAL WEATHER SERVICE LITTLE ROCK AR
400 AM CDT WED MAY 24 2017

NOTE: "FAIR" INDICATES FEW OR NO CLOUDS BELOW 12,000 FEET WITH NO
SIGNIFICANT WEATHER AND/OR OBSTRUCTIONS TO VISIBILITY.

ARZ001-003-010-029-241000-
NORTHWEST ARKANSAS

CITY           SKY/WX    TMP DP  RH WIND       PRES   REMARKS
FAYETTEVILLE   PTCLDY    46  46 100 S3        29.74F
FORT SMITH     CLEAR     53  47  79 W9        29.74F
HARRISON       CLOUDY    52  48  86 W6        29.70F
BENTONVILLE    CLOUDY    52  46  82 NW6       29.74F
ROGERS         CLOUDY    50  48  93 NW3       29.74S
SILOAM SPGS    PTCLDY    48  43  81 NW9       29.74F
HIGHFILL       CLOUDY    52  48  86 NW7       29.74F
$$

ARZ004-005-016-241000-
NORTH CENTRAL ARKANSAS

CITY           SKY/WX    TMP DP  RH WIND       PRES   REMARKS
BATESVILLE     CLOUDY    57  55  94 W3        29.66S
FLIPPIN        PTCLDY    54  46  76 NW6       29.66F
MTN HOME       CLOUDY    53  50  89 N3        29.67
$$

ARZ040-041-241000-
WEST CENTRAL ARKANSAS

CITY           SKY/WX    TMP DP  RH WIND       PRES   REMARKS
MENA           CLEAR     55  52  88 NW8       29.74F
MOUNT IDA      CLEAR     57  49  74 VRB5      29.69F
$$

ARZ009-017-025-026-028-241000-
NORTHEAST ARKANSAS

CITY           SKY/WX    TMP DP  RH WIND       PRES   REMARKS
JONESBORO      LGT RAIN  60  58  92 CALM      29.62F
NEWPORT        CLOUDY    59  57  93 NW6       29.64F
WALNUT RIDGE   CLOUDY    59  54  82 NW9       29.63F
BLYTHEVILLE    LGT RAIN  59  58  96 N8        29.62S
$$

ARZ022-023-033-042-044-241000-
CENTRAL ARKANSAS

CITY           SKY/WX    TMP DP  RH WIND       PRES   REMARKS
LITTLE ROCK    CLOUDY    59  58  96 W10       29.66F
N LITTLE ROCK    N/A     58  56  93 W3        29.66F
JACKSONVILLE   CLOUDY    60  59  99 W6        29.65F
CONWAY           N/A     59  57  94 W8        29.66F
SEARCY         CLOUDY    59  57  93 CALM      29.66F
HOT SPRINGS    PTCLDY    58  54  86 W5        29.69F
RUSSELLVILLE   PTCLDY    58  54  86 W8        29.69F
CLINTON        FAIR      54  54 100 CALM      29.67F
$$

ARZ036-241000-
EAST ARKANSAS

CITY           SKY/WX    TMP DP  RH WIND       PRES   REMARKS
WEST MEMPHIS   RAIN      60  60 100 N10       29.60F FOG
$$

ARZ050-053-066-070-073-241000-
SOUTHWEST ARKANSAS

CITY           SKY/WX    TMP DP  RH WIND       PRES   REMARKS
CAMDEN         MOCLDY    55  54  94 W3        29.69F
TEXARKANA      CLEAR     56  56 100 W7        29.73F
EL DORADO      CLOUDY    56  56 100 SW3       29.71F
DE QUEEN       CLEAR     53  53 100 CALM      29.73F
$$

ARZ056-057-069-241000-
SOUTHEAST ARKANSAS

CITY           SKY/WX    TMP DP  RH WIND       PRES   REMARKS
PINE BLUFF     LGT RAIN  59  58  96 SW5       29.67F
STUTTGART      CLOUDY    61  48  63 W7        29.66F
MONTICELLO     RAIN      59  57  93 NW5       29.66F FOG

$$






USA.gov is the U.S. government's official web portal to all federal, state and local government web resources and services.